Wind_Speed
12 12 10 10 10 9 7 5 6 6 6 7 8 10 11 12 13 14 14 14 14 14 13 14 14 14 14 13 12 11 10 10 9 9 9 9 8 7 6 6 6 6 5 4
12 11 11 11 9 7 6 5 5 3 2 3 5 7 9 10 12 12 12 12 12 13 13 13 14 13 13 13 12 11 11 10 9 9 9 9 8 7 7 5 6 6 7 6
13 12 11 9 7 8 6 4 3 2 3 2 3 6 7 9 9 10 10 11 11 12 12 12 13 13 12 12 12 12 12 11 10 9 10 10 9 8 7 7 7 7 6 6
15 12 11 9 7 6 6 4 3 2 1 1 1 4 5 5 7 8 9 10 10 11 11 11 12 12 12 12 11 12 12 12 11 10 10 10 9 9 8 8 7 6 7 7
16 14 12 11 8 7 6 5 4 4 3 2 3 5 4 4 6 7 8 9 9 9 9 10 10 10 11 11 11 11 12 12 11 11 10 10 9 9 9 9 8 7 7 7
17 15 13 11 9 8 8 8 6 6 6 5 4 6 4 3 4 5 7 7 7 8 8 8 9 9 9 10 10 10 11 11 11 11 10 10 10 10 10 10 9 8 7 7
17 16 12 11 11 10 10 11 9 8 8 6 6 6 4 3 2 3 6 6 6 6 6 6 7 8 7 8 9 10 10 11 11 11 11 10 10 10 10 10 10 9 8 8
17 17 14 12 10 11 10 12 12 11 8 6 7 7 5 3 2 3 4 6 6 6 6 6 6 7 6 7 8 9 10 10 11 11 10 10 10 10 10 10 10 10 10 10
17 16 16 14 12 12 11 12 13 12 11 10 8 8 7 4 3 4 5 5 5 5 5 6 6 6 6 6 7 8 9 9 10 10 10 10 10 11 11 11 11 12 12 11
19 18 17 15 15 14 13 12 13 14 12 11 10 9 7 5 5 6 7 7 6 6 6 7 7 7 6 7 7 8 9 9 10 10 10 10 11 11 11 12 12 13 12 12
21 21 19 18 18 17 16 16 15 15 15 14 13 11 8 7 7 6 6 7 7 8 8 8 8 8 7 8 8 9 10 10 10 10 11 11 11 12 12 12 13 13 13 13
22 23 22 21 20 21 19 18 18 17 16 16 15 14 11 11 10 8 7 9 9 10 10 9 9 9 9 9 9 10 11 11 11 11 12 12 13 13 13 13 13 13 13 14
25 25 24 24 24 24 23 22 20 19 18 18 18 17 15 15 14 12 11 11 11 11 12 11 11 11 12 11 11 12 12 12 13 13 13 14 14 14 14 14 14 14 15 15
28 28 27 26 25 26 26 24 22 21 20 20 20 20 19 17 16 15 15 14 13 13 13 13 12 13 13 14 14 14 15 15 15 16 15 15 14 15 16 16 16 16 16 16
30 30 29 28 26 27 27 26 25 24 23 22 20 21 21 20 19 18 18 17 16 16 15 15 15 15 16 16 17 17 17 17 17 17 17 17 17 17 17 17 18 18 18 18
33 32 31 30 29 29 28 27 27 27 26 25 23 22 22 23 21 20 20 20 19 18 17 17 17 17 18 18 19 19 19 20 19 20 19 19 19 19 19 19 19 20 20 21
34 33 33 32 32 32 32 29 28 27 27 27 27 26 25 24 24 24 24 23 22 21 21 20 20 20 21 20 21 21 21 21 22 22 22 21 21 21 21 22 22 22 22 23
35 34 34 33 33 35 32 31 30 30 30 29 29 29 28 26 24 24 25 24 24 23 23 23 24 23 23 23 23 23 23 23 24 24 24 24 23 24 23 23 24 23 24 25
37 36 35 35 35 35 33 32 32 32 32 32 30 29 28 27 26 27 26 26 26 27 26 26 26 25 25 25 25 25 25 25 26 26 26 25 25 25 25 25 26 26 27 27
36 36 36 37 37 37 35 33 33 33 34 33 33 32 30 29 29 29 29 28 28 29 28 27 27 27 26 26 26 27 27 27 28 28 28 28 28 28 27 27 27 28 28 28
36 36 37 38 39 38 36 34 33 35 34 33 34 34 32 32 32 31 31 31 30 30 30 29 29 28 28 28 28 29 30 30 30 30 30 29 29 30 30 30 29 29 30 29
37 37 38 38 38 37 36 36 35 33 33 33 34 34 34 34 34 33 32 32 32 32 31 30 29 28 29 30 30 31 31 32 32 32 31 31 31 31 31 31 32 32 32 32
37 37 37 38 37 35 35 34 33 34 33 33 34 34 35 36 35 35 35 34 34 33 33 32 31 30 30 31 32 32 32 32 32 32 32 32 33 33 33 34 34 34 34 34
36 37 37 37 36 35 34 35 34 34 34 33 34 34 35 35 36 37 36 36 35 33 34 34 32 32 32 33 34 34 34 34 33 33 33 33 33 34 34 35 35 36 36 36
35 35 35 36 35 34 34 34 34 35 35 35 35 34 34 35 35 36 37 36 36 36 36 35 34 34 34 34 35 35 35 35 35 34 34 34 35 36 36 36 36 37 37 38
34 35 36 36 35 35 34 33 34 35 36 36 36 36 36 35 36 36 37 37 36 35 35 36 36 35 35 35 35 36 36 36 35 35 36 37 37 38 38 38 39 39 40 40
Wind_Direction
152 146 138 125 116 106 107 94 93 78 63 51 47 45 45 47 51 52 52 53 54 55 58 56 55 55 55 54 54 55 52 48 46 46 44 41 48 53 52 56 56 51 50 54
165 156 150 139 127 123 139 129 114 127 122 68 45 47 48 45 46 47 48 51 52 51 52 53 53 52 51 51 54 54 48 46 45 45 45 45 48 47 48 50 53 42 39 41
172 169 168 159 154 150 159 147 151 181 154 98 44 39 37 37 41 42 44 45 47 47 47 49 51 51 50 51 52 50 46 43 42 45 48 46 42 39 41 45 44 38 34 33
182 182 186 181 180 175 177 181 190 194 189 144 347 1 19 33 35 38 37 38 40 39 41 42 45 46 46 49 49 44 41 41 44 45 45 44 40 38 37 32 29 25 24 25
190 188 192 196 200 206 196 210 223 225 228 241 307 332 5 20 32 39 31 27 33 33 34 36 41 44 42 42 43 41 38 38 40 40 37 33 38 37 34 28 25 27 24 20
201 196 198 201 205 214 219 223 228 233 235 249 282 303 308 343 23 30 22 16 23 26 27 27 32 35 35 34 34 34 35 35 36 35 31 29 29 27 26 22 20 18 13 9
211 209 207 209 212 218 227 231 224 226 225 239 250 266 261 296 346 5 4 1 17 21 21 18 19 23 22 23 23 22 25 27 28 27 25 23 21 19 16 14 13 8 1 355
216 212 210 212 222 224 232 236 230 226 221 230 239 248 236 257 290 314 329 340 355 359 6 2 5 6 6 9 11 12 14 15 15 17 16 16 14 10 6 4 1 359 353 346
219 213 211 212 218 228 229 235 235 232 230 237 238 238 232 244 256 284 295 310 330 337 342 345 345 352 349 348 352 357 0 0 0 1 3 3 1 359 357 356 352 347 345 342
224 221 213 215 218 219 228 232 233 235 244 234 241 247 254 249 261 268 278 292 310 315 318 324 323 325 329 329 334 341 346 347 347 350 350 350 351 350 348 346 345 342 340 338
226 228 219 216 220 223 225 227 233 239 243 245 249 251 256 259 259 255 262 271 289 302 310 314 317 318 314 317 321 325 331 331 333 337 338 337 337 338 337 337 338 337 334 333
226 229 223 219 221 224 225 228 232 237 241 244 253 251 249 254 259 257 259 268 280 293 299 302 306 305 306 310 311 312 318 321 321 326 327 326 326 327 328 327 330 330 328 326
226 228 226 222 220 222 224 227 232 236 241 246 252 255 254 257 262 265 265 271 279 287 290 294 296 295 298 302 304 305 307 309 310 313 316 315 317 320 322 321 321 321 321 320
228 229 229 229 226 224 226 228 230 236 241 246 250 254 255 257 258 261 265 270 275 284 284 287 288 291 293 294 297 298 299 301 303 305 308 309 311 313 314 316 315 315 315 316
231 232 232 232 230 227 228 230 232 236 239 245 252 252 254 257 260 262 266 271 276 281 284 285 283 287 289 290 291 293 295 296 296 299 303 304 306 310 310 310 311 311 311 311
234 235 235 234 232 230 230 231 232 236 240 244 249 252 253 255 260 263 266 271 277 280 285 287 288 287 288 289 289 290 291 293 293 295 296 298 301 304 306 306 306 306 306 306
236 237 237 235 233 233 232 232 235 237 241 243 248 252 254 254 257 262 268 270 276 282 285 284 286 287 287 289 288 288 289 291 291 291 292 293 295 298 300 301 302 302 303 303
236 239 239 238 234 234 235 235 238 240 243 246 251 253 252 255 258 262 267 272 276 281 282 283 285 284 286 286 287 287 288 289 289 289 289 289 290 292 294 296 298 299 300 300
236 238 239 238 237 237 234 234 237 240 244 248 252 254 253 257 260 263 268 273 277 281 280 279 282 281 281 282 285 286 286 287 289 290 289 289 290 290 291 292 295 295 297 299
237 237 239 239 239 239 238 236 239 242 244 247 250 253 256 258 262 266 269 271 274 276 277 280 281 281 281 281 282 285 285 286 289 291 291 291 291 291 290 291 292 294 295 297
236 237 239 241 242 241 241 238 240 243 246 249 250 252 255 258 263 266 268 271 273 274 277 278 281 281 282 283 283 284 286 287 288 289 289 289 290 290 290 291 291 293 294 295
237 238 239 241 243 244 244 243 242 246 249 250 251 254 256 259 263 265 268 271 273 275 277 279 279 279 281 283 284 285 286 287 287 287 286 286 287 288 288 289 290 291 292 293
239 240 241 242 245 247 247 247 245 248 250 251 252 254 256 259 263 266 267 270 272 274 276 277 277 278 279 281 283 286 287 287 287 286 286 285 286 287 287 288 289 289 290 290
240 241 243 244 246 247 248 247 248 248 250 251 253 255 257 259 262 265 265 268 271 273 274 274 275 275 277 280 282 284 285 285 285 285 285 286 286 287 288 288 289 289 290 290
239 241 243 243 245 246 248 248 249 249 249 251 252 254 257 260 263 265 267 268 270 271 271 273 274 274 275 278 281 282 283 283 283 284 285 285 286 287 287 287 287 288 289 289
236 238 240 242 245 247 248 250 251 251 250 252 254 255 257 260 263 265 266 267 269 271 271 272 273 274 275 278 279 281 282 282 281 282 283 285 285 285 285 286 287 288 288 288
Height
5922 5924 5925 5925 5926 5926 5926 5926 5926 5927 5927 5927 5926 5926 5926 5925 5924 5923 5922 5921 5920 5918 5917 5915 5913 5912 5910 5909 5908 5907 5906 5905 5903 5902 5900 5898 5896 5896 5895 5895 5894 5893 5892 5891
5923 5924 5924 5925 5925 5926 5926 5926 5927 5927 5927 5927 5927 5927 5926 5926 5925 5925 5924 5923 5922 5920 5919 5917 5916 5914 5912 5911 5910 5909 5907 5906 5904 5903 5901 5900 5898 5897 5896 5895 5895 5894 5893 5892
5921 5923 5923 5924 5925 5925 5926 5926 5927 5927 5928 5927 5927 5927 5926 5926 5926 5926 5925 5924 5923 5922 5920 5919 5918 5916 5914 5913 5912 5910 5909 5907 5906 5904 5903 5901 5900 5899 5897 5896 5895 5894 5893 5892
5920 5921 5922 5923 5924 5925 5925 5926 5927 5927 5927 5927 5928 5927 5926 5926 5927 5926 5926 5925 5923 5922 5921 5920 5919 5917 5916 5915 5913 5912 5910 5908 5907 5905 5904 5903 5902 5900 5899 5898 5896 5895 5894 5893
5919 5920 5921 5922 5924 5924 5925 5926 5927 5927 5927 5927 5927 5927 5927 5926 5927 5927 5926 5925 5924 5923 5922 5921 5920 5918 5917 5916 5915 5913 5911 5910 5908 5907 5905 5904 5902 5901 5900 5899 5897 5896 5894 5893
5917 5918 5919 5921 5922 5923 5925 5925 5926 5926 5926 5927 5927 5926 5927 5926 5926 5926 5926 5925 5924 5923 5923 5921 5920 5919 5918 5917 5916 5914 5912 5911 5910 5908 5906 5904 5902 5901 5900 5899 5897 5896 5894 5893
5914 5916 5918 5919 5920 5922 5923 5924 5925 5925 5925 5925 5925 5925 5926 5926 5925 5925 5924 5924 5924 5923 5923 5922 5921 5920 5919 5917 5916 5915 5913 5912 5910 5908 5907 5905 5903 5902 5900 5899 5897 5896 5894 5892
5911 5914 5916 5917 5919 5920 5921 5922 5923 5923 5923 5923 5923 5923 5924 5923 5923 5923 5923 5923 5923 5923 5923 5922 5921 5920 5919 5918 5917 5915 5913 5912 5910 5909 5907 5905 5904 5902 5900 5898 5897 5895 5893 5891
5908 5911 5913 5914 5916 5918 5919 5919 5920 5921 5921 5921 5921 5921 5921 5921 5921 5922 5922 5922 5921 5922 5922 5921 5920 5920 5919 5918 5916 5915 5913 5912 5910 5909 5907 5905 5903 5901 5899 5898 5896 5893 5891 5889
5905 5908 5910 5912 5913 5915 5916 5917 5918 5918 5918 5918 5918 5918 5919 5919 5920 5920 5921 5921 5920 5920 5920 5920 5919 5918 5918 5917 5916 5914 5913 5911 5910 5908 5906 5904 5902 5900 5898 5896 5894 5892 5890 5887
5900 5903 5906 5908 5909 5911 5913 5914 5914 5915 5915 5916 5915 5918 5917 5917 5918 5918 5919 5919 5919 5918 5918 5918 5918 5917 5916 5916 5914 5913 5911 5910 5908 5907 5905 5903 5901 5899 5897 5895 5892 5890 5887 5885
5895 5898 5900 5903 5906 5907 5908 5909 5911 5912 5912 5913 5913 5916 5914 5914 5915 5916 5917 5917 5917 5917 5916 5916 5916 5915 5914 5913 5912 5911 5910 5908 5907 5905 5903 5901 5899 5897 5895 5892 5890 5887 5885 5883
5889 5892 5895 5897 5902 5903 5903 5904 5906 5907 5908 5909 5909 5912 5911 5911 5912 5913 5914 5914 5914 5914 5914 5913 5912 5912 5911 5910 5909 5908 5907 5906 5904 5902 5900 5898 5896 5894 5892 5890 5887 5885 5882 5880
5883 5885 5889 5892 5895 5897 5898 5900 5901 5903 5904 5904 5905 5906 5907 5907 5908 5909 5910 5911 5911 5911 5911 5910 5910 5909 5908 5907 5906 5905 5903 5902 5901 5898 5896 5895 5893 5891 5889 5886 5884 5881 5879 5876
5876 5879 5882 5885 5888 5891 5893 5895 5896 5898 5899 5900 5901 5901 5902 5903 5904 5905 5906 5906 5907 5907 5907 5906 5906 5905 5904 5902 5901 5901 5899 5898 5896 5894 5893 5891 5889 5887 5884 5882 5880 5877 5875 5872
5869 5872 5876 5879 5882 5884 5887 5889 5891 5892 5894 5894 5895 5897 5898 5898 5899 5900 5901 5902 5902 5902 5902 5901 5901 5900 5899 5898 5897 5895 5894 5893 5891 5890 5888 5886 5884 5882 5880 5878 5875 5873 5870 5867
5862 5866 5869 5872 5875 5877 5880 5883 5885 5886 5887 5889 5890 5892 5892 5892 5893 5894 5895 5897 5897 5897 5897 5896 5896 5894 5894 5893 5892 5890 5888 5887 5885 5884 5882 5881 5879 5877 5875 5873 5870 5868 5865 5862
5855 5858 5861 5864 5868 5869 5876 5877 5878 5880 5881 5882 5884 5885 5886 5887 5888 5889 5890 5890 5891 5891 5891 5891 5890 5889 5887 5886 5885 5884 5882 5881 5879 5878 5876 5874 5873 5871 5869 5867 5864 5862 5859 5856
5847 5850 5853 5856 5858 5861 5867 5869 5871 5873 5874 5875 5877 5878 5880 5881 5881 5882 5883 5884 5885 5885 5885 5884 5883 5882 5881 5880 5879 5878 5876 5875 5873 5871 5869 5867 5865 5864 5862 5860 5858 5855 5853 5850
5839 5841 5844 5847 5849 5852 5859 5862 5863 5866 5866 5868 5869 5871 5873 5874 5875 5877 5877 5878 5878 5878 5878 5877 5876 5875 5873 5872 5871 5870 5869 5867 5865 5864 5862 5860 5858 5857 5855 5853 5850 5848 5846 5843
5830 5832 5835 5837 5840 5844 5850 5853 5855 5858 5859 5860 5861 5863 5865 5867 5869 5870 5870 5870 5870 5870 5870 5869 5867 5866 5865 5865 5863 5862 5860 5859 5858 5856 5854 5852 5851 5849 5847 5844 5842 5840 5838 5835
5821 5824 5826 5829 5831 5837 5841 5844 5846 5848 5850 5852 5853 5855 5857 5859 5860 5861 5861 5862 5862 5861 5861 5860 5859 5858 5857 5856 5855 5853 5852 5850 5849 5847 5845 5843 5842 5840 5838 5836 5834 5831 5829 5826
5812 5816 5818 5822 5826 5829 5832 5834 5837 5839 5841 5843 5844 5846 5848 5849 5850 5851 5852 5852 5852 5852 5851 5851 5851 5850 5848 5847 5846 5844 5842 5841 5839 5838 5836 5834 5833 5831 5829 5826 5824 5822 5819 5817
5803 5807 5810 5813 5816 5820 5823 5825 5828 5830 5832 5833 5835 5836 5837 5839 5840 5841 5841 5842 5842 5842 5842 5841 5841 5840 5839 5838 5836 5835 5833 5831 5830 5828 5826 5824 5823 5821 5819 5817 5814 5812 5810 5807
5796 5799 5801 5804 5807 5811 5813 5816 5818 5820 5822 5824 5826 5827 5828 5829 5830 5831 5831 5831 5832 5832 5832 5832 5831 5830 5829 5828 5827 5825 5823 5821 5820 5818 5817 5815 5813 5811 5809 5807 5804 5802 5799 5796
5788 5790 5793 5796 5800 5802 5805 5808 5809 5811 5813 5815 5816 5818 5819 5820 5821 5821 5821 5821 5821 5822 5822 5822 5821 5820 5819 5818 5817 5815 5813 5812 5810 5808 5806 5804 5802 5800 5798 5796 5794 5791 5788 5785